sat.trackr.live / text

‹ back to catalog

STARLINK-30592

NORAD 58102 · 2023-161F

PAYLOAD ACTIVE UNKNOWN

§ Identity

Operator
Country
US
Launch date
2023-10-21
Launch site
AFWTR
Launch vehicle
Mass (kg)
RCS (m²)

Purposes: comms

External: N2YO · Heavens-Above · Gunter

§ Orbital elements

Epoch: 2026-05-24T18:44:44.850624Z

Period
94.11 min
Inclination
53.1595°
Eccentricity
0.0001089
Mean motion
15.30190183 rev/d
Perigee alt
474.5 km
Apogee alt
476.0 km
Semi-major
6,853.4 km
B*
2.7749e-6
RAAN
171.9469°
Arg perigee
88.1299°
Mean anomaly
271.9827°
Rev number
14,607

§ Raw data

STARLINK-305921 58102U 23161F   26144.78107466 -.00000277  00000+0  27749-5 0  99952 58102  53.1595 171.9469 0001089  88.1299 271.9827 15.30190183146073

JSON: /api/v1/satellites/58102 · /tle

For live sub-satellite position, see the globe view (requires WebGL).

§ Visibility from observer

Set your observer location to see the next 7 days of passes ≥ 10°. The values pass through the URL so the page stays shareable.

No JS? Fill the form by hand. The geolocation button needs JavaScript.